{"data":{"norad_id":58223,"epoch":"2026-09-20T01:43:05.719872Z","epoch_age_seconds":180721,"freshness":"STALE","line1":"1 58223U 23170T   26263.07159398  .00001372  00000+0  59366-4 0  9999","line2":"2 58223  43.0018 176.7885 0001073 276.5597  83.5132 15.27581150160028","mean_motion":15.2758115,"eccentricity":0.0001073,"inclination_deg":43.0018,"raan_deg":176.7885,"arg_perigee_deg":276.5597,"mean_anomaly_deg":83.5132,"bstar":5.9366e-5,"rev_number":16002,"period_min":94.266677747366,"perigee_km":482.30944762949,"apogee_km":483.78185742672,"semimajor_km":6861.1826525281,"source":"CELESTRAK","updated_at":"2026-09-21T09:00:33.834603Z"}}